Location: Unspecified
(50.7693°N, 0.0000°E)
Time: 10:17:45
(UTC+00:00)

deb Explorer IX - Pass Details

Date: 20 June 2019
Orbit: 539 x 1112 km, 38.8° (Epoch: 16 July)

Event Time Altitude Azimuth Distance (km) Brightness Sun altitude
Rises 15:49:10 0° 240° (WSW) 3,917 ? 38.7°
Reaches altitude 10° 15:52:17 10° 230° (SW) 2,972 ? 38.2°
Maximum altitude 15:58:28 30° 173° (S) 1,846 ? 37.2°
Drops below altitude 10° 16:04:26 10° 115° (ESE) 2,850 ? 36.3°
Sets 16:07:21 0° 105° (ESE) 3,734 ? 35.8°
